GW6797 Weather Reports


time (UTC)temp
C
wind
direction
speed
KPH
gust
KPH
rain 1hr
cm
rain 24hr
cm
rain mn
cm
humidity
%
barometer
mb
20260507083513 17 97 8.0 9.7 0.00 0.15 0.10 66 1016.1
20260507083012 17 72 1.6 12.9 0.00 0.15 0.10 64 1016.0
20260507082011 18 214 4.8 8.0 0.00 0.15 0.10 64 1016.0
20260507081511 17 170 3.2 11.3 0.00 0.15 0.10 66 1016.0
20260507081011 17 112 0.0 9.7 0.00 0.15 0.10 67 1015.9
20260507080509 16 107 4.8 9.7 0.00 0.15 0.10 68 1015.7
20260507080010 16 123 6.4 12.9 0.00 0.15 0.10 69 1015.8
20260507075509 16 55 6.4 17.7 0.00 0.15 0.10 70 1015.8
20260507075009 17 143 4.8 17.7 0.00 0.15 0.10 65 1015.8
20260507074507 17 103 3.2 12.9 0.00 0.15 0.10 65 1015.7
20260507073507 16 119 6.4 19.3 0.00 0.15 0.10 69 1015.6
20260507073006 16 43 6.4 19.3 0.00 0.15 0.10 69 1015.6
20260507072006 16 244 4.8 12.9 0.00 0.15 0.10 70 1015.5
20260507071505 16 91 4.8 12.9 0.00 0.15 0.10 72 1015.4
20260507071004 16 312 6.4 11.3 0.00 0.15 0.10 71 1015.3
20260507070504 17 79 4.8 9.7 0.00 0.15 0.10 67 1015.3
20260507070005 17 236 3.2 9.7 0.00 0.15 0.10 68 1015.5
20260507065503 17 271 4.8 8.0 0.00 0.15 0.10 67 1015.3
20260507065003 17 194 0.0 9.7 0.00 0.15 0.10 68 1015.2
20260507064501 16 245 3.2 14.5 0.00 0.15 0.10 72 1015.3
20260507064002 16 85 1.6 14.5 0.00 0.15 0.10 73 1015.3
20260507063000 15 118 1.6 16.1 0.00 0.15 0.10 76 1015.3
20260507062459 15 285 3.2 9.7 0.00 0.15 0.10 77 1015.2
20260507062000 15 86 4.8 9.7 0.00 0.15 0.10 77 1015.1
20260507061459 15 358 3.2 11.3 0.00 0.15 0.10 77 1015.1
20260507060958 15 128 3.2 11.3 0.00 0.15 0.10 78 1015.3
20260507060457 15 239 1.6 9.7 0.00 0.15 0.10 79 1015.2
20260507055957 14 341 1.6 11.3 0.00 0.15 0.10 78 1015.1
20260507055457 13 250 1.6 11.3 0.00 0.15 0.10 81 1015.0
20260507054958 13 143 3.2 9.7 0.00 0.15 0.10 81 1015.1
20260507054455 13 173 3.2 9.7 0.00 0.15 0.10 82 1015.1
20260507053955 13 39 4.8 8.0 0.00 0.15 0.10 81 1015.0
20260507053455 13 145 4.8 8.0 0.00 0.15 0.10 81 1015.2
20260507052955 13 86 4.8 12.9 0.00 0.15 0.10 82 1015.0
20260507052453 13 230 4.8 12.9 0.00 0.15 0.10 83 1015.0
20260507051953 13 330 3.2 12.9 0.00 0.15 0.10 84 1014.8
20260507051453 13 214 0.0 8.0 0.00 0.15 0.10 84 1015.0
20260507050451 12 106 4.8 12.9 0.00 0.15 0.10 86 1014.5
20260507045951 12 347 1.6 17.7 0.00 0.15 0.10 87 1014.5
20260507045451 12 79 9.7 17.7 0.00 0.15 0.10 88 1014.6
20260507044449 12 204 4.8 22.5 0.00 0.15 0.10 88 1014.3
20260507043449 12 83 4.8 12.9 0.00 0.15 0.10 88 1013.9
20260507042447 12 84 8.0 16.1 0.00 0.15 0.10 89 1014.0
20260507041946 12 69 3.2 17.7 0.00 0.15 0.10 89 1013.7
20260507041446 12 357 4.8 17.7 0.00 0.15 0.10 89 1013.5
20260507040945 12 170 3.2 20.9 0.00 0.15 0.10 89 1013.5
20260507040446 12 349 4.8 20.9 0.00 0.15 0.10 89 1013.4
20260507035945 12 330 1.6 19.3 0.00 0.15 0.10 89 1013.4
20260507035444 12 81 6.4 22.5 0.03 0.15 0.10 89 1013.5
20260507034944 12 151 3.2 22.5 0.03 0.15 0.10 89 1013.5
20260507034443 12 66 6.4 16.1 0.03 0.15 0.10 90 1013.6
20260507033942 12 47 6.4 20.9 0.05 0.15 0.10 90 1013.6
20260507033442 12 83 6.4 20.9 0.05 0.15 0.10 90 1013.6
20260507032942 12 78 9.7 16.1 0.05 0.15 0.10 90 1013.6
20260507032440 12 73 12.9 12.9 0.08 0.15 0.10 90 1013.7
20260507031941 12 259 3.2 11.3 0.08 0.15 0.10 89 1013.7
20260507031440 12 235 3.2 24.1 0.08 0.15 0.10 88 1014.0
20260507030939 12 169 6.4 24.1 0.05 0.15 0.10 89 1013.8
20260507030439 12 48 4.8 20.9 0.08 0.15 0.10 89 1013.9
20260507025437 12 109 8.0 19.3 0.08 0.13 0.08 90 1014.0
20260507024937 12 70 6.4 19.3 0.05 0.13 0.08 89 1014.0
20260507024437 12 72 11.3 17.7 0.08 0.13 0.08 89 1014.0
20260507023936 13 91 8.0 12.9 0.05 0.10 0.05 88 1013.9
20260507022936 13 155 3.2 14.5 0.05 0.10 0.05 88 1014.0
20260507022436 13 10 6.4 14.5 0.03 0.08 0.03 88 1013.7
20260507021434 13 186 3.2 14.5 0.03 0.08 0.03 85 1013.6
20260507020934 13 87 3.2 12.9 0.03 0.08 0.03 86 1013.6
20260507020433 13 165 4.8 9.7 0.03 0.08 0.03 86 1013.6
20260507015932 13 33 3.2 9.7 0.03 0.08 0.03 86 1013.7
20260507015432 13 111 8.0 8.0 0.00 0.05 0.00 86 1013.6
20260507014431 13 242 3.2 16.1 0.00 0.05 0.00 85 1013.8
20260507013931 13 210 3.2 12.9 0.00 0.05 0.00 85 1013.8
20260507013430 13 267 4.8 11.3 0.00 0.05 0.00 84 1013.8
20260507012929 13 224 4.8 14.5 0.00 0.05 0.00 84 1013.9
20260507012429 13 69 4.8 14.5 0.00 0.05 0.00 84 1013.8
20260507011928 13 187 6.4 9.7 0.00 0.05 0.00 83 1013.8
20260507011428 13 128 1.6 11.3 0.00 0.05 0.00 83 1013.7
20260507010426 13 235 6.4 19.3 0.00 0.05 0.00 82 1013.5
20260507005927 13 284 6.4 19.3 0.00 0.05 0.00 82 1013.7
20260507005425 13 143 4.8 12.9 0.00 0.05 0.00 82 1013.6
20260507004926 13 276 6.4 12.9 0.00 0.05 0.00 82 1013.6
20260507003924 13 218 3.2 12.9 0.00 0.05 0.00 82 1013.6
20260507003424 13 214 4.8 17.7 0.00 0.05 0.00 83 1013.9
20260507002923 13 268 4.8 17.7 0.00 0.05 0.00 83 1013.8
20260507001922 13 86 3.2 25.7 0.00 0.05 0.00 83 1013.4
20260507001421 13 84 12.9 29.0 0.00 0.05 0.00 83 1013.6
20260507000420 13 86 14.5 35.4 0.00 0.05 0.00 82 1013.3
20260506235921 13 68 3.2 35.4 0.00 0.05 0.00 82 1013.5
20260506235419 14 67 8.0 27.4 0.00 0.05 0.00 82 1013.4
20260506234919 14 93 14.5 27.4 0.00 0.05 0.00 81 1013.3
20260506234418 14 80 11.3 24.1 0.00 0.05 0.00 81 1013.3
20260506233919 14 83 12.9 19.3 0.00 0.05 0.00 81 1013.1
20260506233417 14 79 8.0 17.7 0.00 0.05 0.00 81 1013.4
20260506232916 14 57 6.4 20.9 0.00 0.05 0.00 81 1013.7
20260506232416 14 105 4.8 20.9 0.00 0.05 0.00 81 1013.5
20260506231916 14 28 8.0 32.2 0.00 0.05 0.00 80 1013.6
20260506231415 14 182 8.0 32.2 0.00 0.05 0.00 80 1013.8
20260506230915 14 89 8.0 24.1 0.00 0.05 0.00 80 1013.6
20260506230414 14 94 9.7 22.5 0.00 0.05 0.00 80 1014.0
20260506225914 14 167 4.8 20.9 0.00 0.05 0.00 79 1013.6
20260506225413 14 84 8.0 17.7 0.00 0.05 0.00 79 1013.8
20260506224913 14 78 3.2 22.5 0.00 0.05 0.00 79 1014.0
20260506224412 14 8 4.8 25.7 0.00 0.05 0.00 79 1013.8
20260506223913 14 95 8.0 25.7 0.00 0.05 0.00 79 1013.8
20260506223411 14 101 9.7 33.8 0.00 0.05 0.00 80 1013.5
20260506222911 14 37 8.0 33.8 0.00 0.05 0.00 79 1013.6
20260506222410 14 97 14.5 22.5 0.00 0.05 0.00 79 1013.7
20260506221910 14 265 6.4 24.1 0.00 0.05 0.00 79 1013.8
20260506221409 14 79 8.0 24.1 0.00 0.05 0.00 79 1013.8
20260506220408 14 85 12.9 24.1 0.00 0.05 0.00 78 1014.1
20260506215908 14 107 17.7 24.1 0.00 0.05 0.05 78 1014.0
20260506215407 14 104 9.7 20.9 0.00 0.05 0.05 78 1013.9
20260506214907 14 359 8.0 20.9 0.00 0.05 0.05 78 1013.8
20260506213906 14 71 9.7 29.0 0.00 0.05 0.05 78 1014.0
20260506213405 14 95 16.1 29.0 0.00 0.05 0.05 78 1013.8
20260506212905 14 76 11.3 20.9 0.00 0.05 0.05 78 1013.7
20260506212404 14 58 8.0 19.3 0.00 0.05 0.05 78 1013.8
20260506211903 14 68 6.4 19.3 0.00 0.05 0.05 78 1013.9
20260506211403 14 108 8.0 17.7 0.00 0.05 0.05 78 1013.8
20260506210903 14 117 4.8 17.7 0.00 0.05 0.05 79 1013.8
20260506210402 14 46 9.7 20.9 0.00 0.05 0.05 79 1013.9
20260506205902 14 82 6.4 20.9 0.00 0.05 0.05 78 1014.1
20260506205401 14 72 4.8 20.9 0.00 0.05 0.05 79 1014.0
20260506204400 14 164 3.2 14.5 0.00 0.05 0.05 79 1014.4
20260506203900 14 62 3.2 17.7 0.00 0.05 0.05 79 1014.4
20260506203359 14 50 6.4 17.7 0.00 0.05 0.05 79 1014.4
20260506202858 14 77 9.7 25.7 0.00 0.05 0.05 79 1014.2
20260506202358 14 93 9.7 25.7 0.00 0.05 0.05 79 1014.3
20260506200856 14 76 16.1 22.5 0.00 0.05 0.05 78 1014.3
20260506200356 14 292 3.2 22.5 0.00 0.05 0.05 78 1014.5
20260506195856 15 2 3.2 17.7 0.00 0.05 0.05 78 1014.4
20260506195355 15 97 4.8 20.9 0.00 0.05 0.05 77 1014.4
20260506193854 15 28 9.7 20.9 0.00 0.05 0.05 75 1014.0
20260506193353 15 343 4.8 19.3 0.00 0.05 0.05 75 1014.0
20260506192852 15 84 6.4 14.5 0.00 0.05 0.05 74 1014.1
20260506192352 15 81 4.8 17.7 0.00 0.05 0.05 74 1014.0
20260506191852 15 126 3.2 19.3 0.00 0.05 0.05 74 1013.9
20260506190850 15 137 11.3 17.7 0.00 0.05 0.05 73 1013.5
20260506190350 15 52 3.2 11.3 0.00 0.05 0.05 74 1013.7
20260506185849 15 84 3.2 11.3 0.00 0.05 0.05 74 1013.5
20260506185349 15 94 9.7 16.1 0.00 0.05 0.05 74 1013.6
20260506184849 15 279 4.8 16.1 0.00 0.05 0.05 74 1013.3
20260506184348 15 253 4.8 12.9 0.00 0.05 0.05 76 1013.3
20260506183848 15 267 3.2 20.9 0.00 0.05 0.05 76 1013.4
20260506183347 15 341 3.2 22.5 0.00 0.05 0.05 76 1013.1
20260506182846 15 215 3.2 22.5 0.00 0.05 0.05 76 1013.4
20260506182346 15 299 1.6 22.5 0.00 0.05 0.05 76 1013.4
20260506181846 15 52 9.7 19.3 0.00 0.05 0.05 76 1013.2
20260506181345 15 94 8.0 17.7 0.00 0.05 0.05 75 1013.4
20260506180844 15 110 6.4 20.9 0.00 0.05 0.05 75 1013.5
20260506180344 15 110 6.4 24.1 0.00 0.05 0.05 75 1013.2
20260506175845 15 55 19.3 24.1 0.00 0.05 0.05 74 1013.2
20260506174341 16 70 1.6 20.9 0.00 0.05 0.05 73 1013.2
20260506173842 16 116 4.8 20.9 0.00 0.05 0.05 74 1013.1
20260506173342 15 77 4.8 17.7 0.00 0.05 0.05 76 1013.3
20260506172841 16 20 4.8 17.7 0.00 0.05 0.05 76 1013.0
20260506172340 16 300 6.4 11.3 0.00 0.05 0.05 76 1013.1
20260506171839 16 211 4.8 14.5 0.00 0.05 0.05 76 1013.2
20260506171339 16 271 1.6 14.5 0.00 0.05 0.05 78 1013.1
20260506170838 16 146 0.0 9.7 0.00 0.05 0.05 78 1013.2
20260506165337 16 163 0.0 6.4 0.05 0.05 0.05 78 1013.3
20260506164837 16 298 0.0 6.4 0.05 0.05 0.05 78 1013.2
20260506164335 16 62 3.2 9.7 0.05 0.05 0.05 78 1013.3
20260506163835 16 116 3.2 9.7 0.05 0.05 0.05 79 1013.4
20260506162834 16 219 1.6 8.0 0.05 0.05 0.05 79 1013.2
20260506162333 15 150 3.2 6.4 0.05 0.05 0.05 80 1013.2
20260506161832 15 247 3.2 6.4 0.05 0.05 0.05 81 1013.2
20260506161332 15 273 1.6 6.4 0.05 0.05 0.05 82 1013.4
20260506160832 15 176 4.8 9.7 0.05 0.05 0.05 82 1013.4
20260506155832 16 111 3.2 30.6 0.05 0.05 0.05 80 1013.3
20260506155330 17 99 8.0 17.7 0.00 0.00 0.00 68 1013.5
20260506154329 17 348 3.2 11.3 0.00 0.00 0.00 64 1013.4
20260506153829 17 84 3.2 11.3 0.00 0.00 0.00 63 1013.4
20260506153328 18 14 8.0 11.3 0.00 0.00 0.00 61 1013.2
20260506152828 18 18 6.4 9.7 0.00 0.00 0.00 62 1013.3
20260506152327 18 189 0.0 11.3 0.00 0.00 0.00 61 1012.8
20260506151827 18 62 4.8 12.9 0.00 0.00 0.00 62 1013.0
20260506151327 17 95 4.8 12.9 0.00 0.00 0.00 64 1013.1
20260506150326 18 333 0.0 11.3 0.00 0.00 0.00 63 1013.3
20260506145824 18 99 8.0 9.7 0.00 0.00 0.00 63 1013.1
20260506144824 18 104 6.4 14.5 0.00 0.00 0.00 62 1013.0
20260506144323 18 61 4.8 12.9 0.00 0.00 0.00 61 1013.1
20260506143823 18 277 4.8 9.7 0.00 0.00 0.00 62 1013.1
20260506142321 18 111 8.0 14.5 0.00 0.00 0.00 61 1013.1
20260506141320 18 96 4.8 14.5 0.00 0.00 0.00 60 1013.1
20260506140820 18 67 4.8 14.5 0.00 0.00 0.00 60 1013.1
20260506140319 18 50 6.4 14.5 0.00 0.00 0.00 61 1013.1
20260506135318 18 27 6.4 16.1 0.00 0.00 0.00 61 1013.3
20260506134317 18 109 8.0 17.7 0.00 0.00 0.00 62 1013.3
20260506133316 18 54 9.7 19.3 0.00 0.00 0.00 62 1013.6
20260506132815 18 198 6.4 19.3 0.00 0.00 0.00 62 1013.7
20260506132315 18 124 1.6 19.3 0.00 0.00 0.00 61 1013.6
20260506131815 18 88 6.4 20.9 0.00 0.00 0.00 61 1013.6
20260506131314 18 37 3.2 20.9 0.00 0.00 0.00 61 1013.4
20260506130814 18 48 11.3 25.7 0.00 0.00 0.00 59 1013.3
20260506130314 18 107 11.3 33.8 0.00 0.00 0.00 59 1013.4
20260506125812 19 140 3.2 33.8 0.00 0.00 0.00 58 1013.6
20260506125312 18 95 12.9 24.1 0.00 0.00 0.00 59 1013.6
20260506124311 18 101 6.4 25.7 0.00 0.00 0.00 58 1013.5
20260506123811 18 98 8.0 25.7 0.00 0.00 0.00 59 1013.7
20260506123309 18 98 11.3 25.7 0.00 0.00 0.00 59 1013.7
20260506122810 18 75 9.7 17.7 0.00 0.00 0.00 59 1013.5
20260506122309 18 112 9.7 16.1 0.00 0.00 0.00 58 1013.7
20260506121809 18 82 3.2 24.1 0.00 0.00 0.00 58 1013.7
20260506121308 19 158 4.8 24.1 0.00 0.00 0.00 57 1013.7
20260506120808 19 89 19.3 29.0 0.00 0.00 0.00 56 1013.3
20260506120307 19 17 3.2 29.0 0.00 0.00 0.00 56 1013.5
20260506115806 18 105 14.5 20.9 0.00 0.00 0.00 57 1013.5
20260506115307 19 74 4.8 20.9 0.00 0.00 0.00 57 1013.6
20260506113804 20 19 3.2 19.3 0.00 0.00 0.00 57 1013.5
20260506113303 19 103 4.8 19.3 0.00 0.00 0.00 59 1013.4
20260506112803 20 64 9.7 27.4 0.00 0.00 0.00 59 1013.5
20260506112305 19 84 14.5 27.4 0.00 0.00 0.00 61 1013.5
20260506111802 20 103 6.4 19.3 0.00 0.00 0.00 58 1013.5
20260506111301 20 52 1.6 20.9 0.00 0.00 0.00 58 1013.4
20260506110802 20 78 8.0 20.9 0.00 0.00 0.00 60 1013.5
20260506105801 19 142 6.4 16.1 0.00 0.00 0.00 60 1013.8
20260506105259 20 147 3.2 16.1 0.00 0.00 0.00 60 1013.6
20260506104800 20 281 3.2 14.5 0.00 0.00 0.00 59 1013.7
20260506104258 20 65 4.8 12.9 0.00 0.00 0.00 59 1013.8
20260506103758 19 99 9.7 12.9 0.00 0.00 0.00 62 1013.7
20260506103257 18 122 6.4 11.3 0.00 0.00 0.00 63 1013.6
20260506102257 18 234 3.2 12.9 0.00 0.00 0.00 64 1013.9
20260506101255 18 211 0.0 16.1 0.00 0.00 0.00 64 1013.8
20260506100254 18 73 11.3 22.5 0.00 0.00 0.00 64 1013.9
20260506095755 18 264 9.7 22.5 0.00 0.00 0.00 63 1014.0
20260506095253 18 104 8.0 11.3 0.00 0.00 0.00 64 1013.9
20260506094754 18 261 6.4 11.3 0.00 0.00 0.00 63 1013.9
20260506094252 18 196 4.8 11.3 0.00 0.00 0.00 63 1013.9
20260506093753 17 178 8.0 16.1 0.00 0.00 0.00 64 1013.8
20260506093252 17 195 3.2 16.1 0.00 0.00 0.00 64 1013.7
20260506092752 17 213 3.2 19.3 0.00 0.00 0.00 64 1013.9
20260506092250 17 260 19.3 19.3 0.00 0.00 0.00 65 1013.8
20260506091750 17 266 0.0 9.7 0.00 0.00 0.00 65 1013.8
20260506091250 17 202 1.6 8.0 0.00 0.00 0.00 64 1013.9
20260506090750 17 33 3.2 12.9 0.00 0.00 0.00 64 1013.8
20260506090248 16 125 3.2 17.7 0.00 0.00 0.00 64 1014.1
20260506085748 16 258 9.7 17.7 0.00 0.00 0.00 64 1013.7
20260506085247 16 92 8.0 14.5 0.00 0.00 0.00 63 1014.0
20260506084748 16 334 3.2 12.9 0.00 0.00 0.00 62 1013.7
20260506084246 16 103 4.8 8.0 0.00 0.00 0.00 62 1013.8
20260506083723 16 321 6.4 11.3 0.00 0.00 0.00 62 1013.8